HELLAS-SAT 3 (42814 NORAD) Tracking and Keplerian Element Data

This shows tracking and keplerian element data for the satellite.

Feedback or suggestion? Click here.




ElementValue
Catalog42814
NameHELLAS-SAT 3
Epoch Orbit1552
Epoch Day269.9275762
Epoch Year2021
RAAN18.0725
Inclination0.0646
Eccentricity9.26E-05
Argument of Perigee108.3409
Mean Anonmoly252.4551
Mean Motion1.00271368
Decay Rate1.51E-06
L11 42814U 17040A 21269.92757620 .00000151 00000-0 00000-0 0 9996
L22 42814 0.0646 18.0725 0000926 108.3409 252.4551 1.00271368 15527

Live tracking and technical data element details for HELLAS-SAT 3 (NORAD 42814). HELLAS-SAT 3 can be tracked NOW for your location showing map with azimuth and elevation plus other details from your city location.

Track the satellite on the map from your city or location and see movement details for azimuth, elevation, latitude, longitude, range, height, and movement on the map or in text.







IsCatalogInMostPopularTable: catalog: 42814, numindb: 551
Update: records affected: 1



GetName: 42814 HELLAS-SAT 3

Hit Count: updated at: Tue, 28 Sep 2021 15:47:48 GMT